Simultaneous Nadir Overpasses (SNOs) Predictions

Prediction of SNOs between GOES-16 and METOP-C Satellite Orbit:

Table of predicted SNOs for the next 14.0 days since TLE Epoch: 7/8/2023
Index Date Time (GOES-16) GOES-16 Lat,Lon METOP-C Lat,Lon Distance(km) Time Diff (sec)
1 07/08/2023 02:20:29 -0.01, -75.19 0.53, -72.76 277.33 8
2 07/09/2023 14:40:48 0.01, -75.21 0.47, -77.32 240.40 80
3 07/10/2023 14:17:29 0.01, -75.22 -0.66, -72.33 329.60 80
4 07/12/2023 02:39:08 -0.00, -75.22 -0.39, -76.92 193.64 80
5 07/13/2023 02:15:48 -0.00, -75.23 0.75, -71.93 376.57 80
6 07/14/2023 14:34:40 -0.00, -75.26 0.26, -76.50 140.53 80
7 07/15/2023 14:16:40 -0.01, -75.27 -0.87, -71.51 429.99 80
8 07/17/2023 02:35:40 0.01, -75.29 -0.14, -76.10 92.26 80
9 07/18/2023 02:12:19 0.01, -75.30 0.94, -71.10 478.77 80
10 07/19/2023 14:31:10 -0.01, -75.34 0.08, -75.66 37.19 80
